[[{"header":{"parameterUnit":"m.s-1","parameterCategory":1,"la1":30.2991,"la2":30.254,"lo1":-89.0895,"lo2":-89.0444,"dy":0.0017,"dx":0.0017,"nx":28,"ny":28,"refTime":"2024-10-21T03:00:00:Z","depth":0,"parameterNumber":2,"parameterNumberName":"U-component_of_WINDS"},"data":[0,0,0,0,0,0,0,0,0,0,0,0,0,0,0,0,0,0,0,0,0,0,0,0,0,0,0,0,0,0,0,0,0,0,0,0,0,0,0,0,0,0,0,0,0,0,0,0,0,0,0,0,0,0,0,0,0,0,0.0284,0.0285,0,0.038,0.0381,0.0382,0.0487,0.0489,0.049,0.0492,0.0588,0.0589,0.059,0,0,0,0,0,0,0,0,0,0,0,0,0,0.0188,0.0189,0.0284,0.0285,0.0286,0.038,0.0381,0.0382,0.0487,0.0489,0.0491,0.0493,0.0588,0.0589,0.0591,0,0,0,0,0,0,0,0,0,0,0,0,0,0.0251,0.019,0.0283,0.035,0.0357,0.038,0.0381,0.0383,0.0487,0.0489,0.0491,0.0493,0.0587,0.0589,0.0591,0.0556,0,0,0.0596,0.0597,0,0,0,0,0,0,0,0,0.0247,0.0255,0.0339,0.0345,0.0353,0.0424,0.0383,0.0441,0.0486,0.0437,0.0492,0.0495,0.0532,0.0538,0.0551,0.056,0.0564,0.0596,0.0597,0.0598,0.0598,0,0,0,0,0,0,0,0.0243,0.0251,0.0322,0.034,0.0348,0.0374,0.0385,0.0394,0.047,0.0442,0.045,0.046,0.0536,0.0549,0.0554,0.0566,0.0596,0.0598,0.0599,0.0599,0.0548,0.0546,0,0,0,0,0,0,0.0229,0.0247,0.0319,0.0325,0.0305,0.0374,0.0387,0.0399,0.0471,0.0484,0.0458,0.0464,0.0545,0.0552,0.0558,0.0519,0.0598,0.06,0.0601,0.0551,0.0548,0.0545,0,0,0,0,0,0,0.0226,0.0234,0.0315,0.0288,0.03,0.0373,0.0386,0.04,0.0413,0.0483,0.0496,0.0457,0.0547,0.0555,0.0555,0.0524,0.06,0.0602,0.0554,0.055,0.0547,0.0442,0,0,0,0,0,0,0.0223,0.0233,0.0221,0.0287,0.0301,0.0311,0.0384,0.04,0.0416,0.0425,0.0486,0.0498,0.055,0.0552,0.0557,0.0528,0.0603,0.0557,0.0552,0.0548,0.0449,0.0435,0.0424,0,0,0,0,0,0.022,0.0188,0.022,0.0228,0.0288,0.0309,0.0317,0.0377,0.0413,0.0401,0.0445,0.0496,0.0527,0.0551,0.0557,0.0528,0.0559,0.0553,0.0548,0.0454,0.0438,0.0424,0,0,0,0,0,0,0.0115,0.0197,0.0234,0.0223,0.0258,0.0326,0.0313,0.0359,0.0384,0.0392,0.0465,0.0478,0.0468,0.0499,0.0524,0.0497,0.055,0.0546,0.0477,0.0462,0.045,0.0441,0.0605,0,0,0,0,0,0.0091,0.0102,0.0173,0.0156,0.0172,0.0239,0.0251,0.0294,0.0334,0.0349,0.0394,0.0429,0.0447,0.0457,0.0477,0.0455,0.0468,0.0438,0.0426,0.0415,0.0409,0.0397,0.0384,0.0528,0.0528,0.0528,0,0,0.0041,0.0087,0.009,0.0137,0.0169,0.0177,0.0251,0.0258,0.0264,0.035,0.0351,0.0385,0.043,0.0417,0.0414,0.0443,0.0373,0.0408,0.04,0.04,0.039,0.0376,0.0364,0.0524,0.0525,0.0525,0,0,-0.0047,-0.001,-0.0021,0.001,0.0059,0.0104,0.0101,0.0162,0.0188,0.0191,0.0255,0.0264,0.0294,0.0322,0.034,0.0262,0.0309,0.0267,0.0202,0.0189,0.0178,0.0168,0.0137,0.0125,0.0262,0.0262,0.0262,0,-0.0116,-0.01,-0.0033,-0.0031,-0.0013,0.0066,0.0054,0.0081,0.0133,0.0143,0.0175,0.0212,0.0248,0.0242,0.0223,0.0236,0.0233,0.0259,0.0174,0.0165,0.0157,0.0128,0.0116,0.0256,0.0257,0.0257,0.0258,0,-0.0189,-0.0179,-0.0194,-0.0146,-0.0129,-0.0134,-0.0069,-0.006,-0.0018,0.0023,0.0024,0.007,0.01,0.0103,0.0144,0.0102,0.0117,0.0161,0.0215,0.0136,0.011,0.01,0.0248,0.025,0.0252,0.0253,0,0,-0.0342,-0.0256,-0.0263,-0.0241,-0.0182,-0.0173,-0.0175,-0.0145,-0.0141,-0.0107,-0.0109,-0.0086,-0.0046,-0.0026,0.002,0.0009,-0.0059,0.0054,0.0056,0.0028,-0.0107,-0.0143,-0.0156,-0.0026,-0.0028,-0.0029,-0.0112,0,-0.0422,-0.0421,-0.036,-0.0377,-0.0368,-0.0292,-0.0294,-0.0259,-0.0221,-0.0208,-0.0165,-0.0152,-0.0098,-0.0086,-0.0093,-0.005,-0.0086,-0.0042,-0.003,-0.003,-0.0047,-0.0169,-0.0206,-0.0286,-0.0121,-0.0123,-0.0124,0,-0.0516,-0.0489,-0.0504,-0.0446,-0.044,-0.0443,-0.0412,-0.04,-0.0359,-0.033,-0.0308,-0.0256,-0.0255,-0.0201,-0.0201,-0.0172,-0.0163,-0.0141,-0.0143,-0.0142,-0.0085,-0.0176,-0.031,-0.0324,-0.0138,-0.0137,-0.0136,0,-0.0631,-0.0597,-0.0603,-0.0586,-0.0517,-0.0521,-0.0493,-0.0449,-0.0435,-0.0408,-0.0399,-0.0372,-0.0358,-0.0339,-0.0282,-0.0247,-0.0289,-0.023,-0.0268,-0.027,-0.0283,-0.0284,-0.0422,-0.0271,-0.0271,-0.0271,-0.0271,0,-0.0729,-0.0743,-0.0654,-0.0658,-0.0671,-0.0601,-0.0616,-0.058,-0.0542,-0.0539,-0.047,-0.0469,-0.0391,-0.0382,-0.0337,-0.0345,-0.0338,-0.0317,-0.0306,-0.0325,-0.0329,-0.0321,-0.0316,-0.0274,-0.0273,-0.0273,-0.0272,0,-0.0861,-0.0802,-0.0803,-0.0738,-0.0721,-0.0735,-0.0679,-0.0681,-0.0637,-0.0634,-0.0629,-0.0562,-0.0547,-0.0487,-0.0458,-0.0427,-0.0452,-0.0427,-0.0467,-0.046,-0.0503,-0.0501,-0.0644,-0.066,-0.0496,-0.0498,-0.0499,0,-0.093,-0.0939,-0.0874,-0.0867,-0.0841,-0.083,-0.0816,-0.0747,-0.0736,-0.069,-0.0698,-0.0677,-0.0657,-0.0637,-0.0587,-0.0564,-0.054,-0.0592,-0.0537,-0.0557,-0.0546,-0.0548,-0.055,-0.0605,-0.0607,-0.0609,-0.061,0,-0.1059,-0.1029,-0.1011,-0.0984,-0.0969,-0.0944,-0.0915,-0.0913,-0.0837,-0.0827,-0.0811,-0.0796,-0.0766,-0.0747,-0.0717,-0.0688,-0.0638,-0.0627,-0.0636,-0.0658,-0.0682,-0.0674,-0.0503,-0.0626,-0.0624,-0.0623,-0.0622,-0.0621,-0.1164,-0.1169,-0.1125,-0.1108,-0.1078,-0.1053,-0.1052,-0.1009,-0.0994,-0.0964,-0.0924,-0.0914,-0.0873,-0.0827,-0.0802,-0.0794,-0.0766,-0.0777,-0.078,-0.0785,-0.0797,-0.0681,-0.0788,-0.0787,-0.0787,-0.0786,-0.0786,0,-0.1293,-0.1261,-0.1245,-0.1207,-0.1194,-0.1146,-0.1111,-0.1104,-0.1096,-0.1062,-0.1044,-0.1026,-0.1008,-0.0956,-0.0933,-0.0937,-0.0913,-0.0933,-0.0934,-0.0929,-0.0821,-0.0818,-0.0953,-0.0953,-0.0953,-0.0953,-0.0953,-0.0953,-0.1359,-0.1366,-0.1331,-0.1324,-0.1291,-0.128,-0.1265,-0.1242,-0.1215,-0.1198,-0.1183,-0.1148,-0.1107,-0.1081,-0.1063,-0.1048,-0.1044,-0.1073,-0.1051,-0.0952,-0.0936,-0.0921,-0.0918,-0.1072,-0.1072,-0.116,-0.1161,-0.1162]},{"header":{"parameterUnit":"m.s-1","parameterCategory":1,"la1":30.2991,"la2":30.254,"lo1":-89.0895,"lo2":-89.0444,"dy":0.0017,"dx":0.0017,"nx":28,"ny":28,"refTime":"2024-10-21T03:00:00:Z","depth":0,"parameterNumber":3,"parameterNumberName":"V-component_of_WINDS"},"data":[0,0,0,0,0,0,0,0,0,0,0,0,0,0,0,0,0,0,0,0,0,0,0,0,0,0,0,0,0,0,0,0,0,0,0,0,0,0,0,0,0,0,0,0,0,0,0,0,0,0,0,0,0,0,0,0,0,0,1.1084,1.1084,0,1.1042,1.1041,1.1041,1.1029,1.1029,1.103,1.103,1.0982,1.098,1.0979,0,0,0,0,0,0,0,0,0,0,0,0,0,1.1151,1.115,1.1084,1.1084,1.1083,1.1042,1.1041,1.1041,1.1029,1.103,1.103,1.103,1.0982,1.098,1.0979,0,0,0,0,0,0,0,0,0,0,0,0,0,1.1116,1.1149,1.1084,1.1073,1.1071,1.1042,1.1041,1.1041,1.1029,1.103,1.103,1.103,1.0983,1.0981,1.0978,1.0956,0,0,1.0971,1.097,0,0,0,0,0,0,0,0,1.1118,1.1114,1.1075,1.1073,1.1072,1.1041,1.1047,1.1012,1.1029,1.1045,1.103,1.103,1.1001,1.0997,1.0988,1.0954,1.0952,1.0971,1.097,1.0969,1.0968,0,0,0,0,0,0,0,1.1121,1.1116,1.1067,1.1074,1.1072,1.1068,1.1063,1.104,1.1021,1.1044,1.1043,1.1038,1.1,1.099,1.0987,1.0951,1.0971,1.0969,1.0968,1.0967,1.0896,1.0895,0,0,0,0,0,0,1.1126,1.1118,1.1069,1.1066,1.1097,1.1066,1.1061,1.1051,1.1021,1.1017,1.1038,1.1038,1.0994,1.099,1.0985,1.0957,1.0969,1.0967,1.0965,1.0896,1.0895,1.0895,0,0,0,0,0,0,1.1127,1.1122,1.107,1.1092,1.1085,1.1065,1.1053,1.105,1.104,1.1017,1.1013,1.1032,1.0994,1.0988,1.0964,1.0955,1.0966,1.0964,1.0897,1.0896,1.0895,1.09,0,0,0,0,0,0,1.1129,1.1122,1.1115,1.1092,1.1084,1.1051,1.1052,1.1048,1.1037,1.1036,1.101,1.1006,1.0994,1.0967,1.0961,1.0952,1.0962,1.0897,1.0896,1.0895,1.09,1.0899,1.0898,0,0,0,0,0,1.1132,1.1117,1.1114,1.1109,1.1074,1.1051,1.1046,1.1034,1.1036,1.1027,1.1013,1.1007,1.0957,1.0965,1.0958,1.0948,1.0898,1.0897,1.0896,1.0901,1.0899,1.0898,0,0,0,0,0,0,1.1138,1.1114,1.1111,1.1088,1.1072,1.1049,1.1038,1.1033,1.1014,1.1014,1.0998,1.0992,1.0968,1.0956,1.0965,1.0924,1.0927,1.0925,1.0933,1.0932,1.0931,1.0934,1.096,0,0,0,0,0,1.1137,1.1122,1.1101,1.1083,1.1075,1.1058,1.1047,1.1039,1.102,1.1013,1.0996,1.0977,1.0957,1.0944,1.0924,1.0899,1.0892,1.0888,1.0887,1.0886,1.0884,1.0868,1.0866,1.0891,1.0891,1.0891,0,0,1.1135,1.1119,1.111,1.1084,1.107,1.1052,1.1052,1.1034,1.102,1.101,1.0985,1.0972,1.095,1.0925,1.0912,1.0913,1.0876,1.0885,1.0885,1.0882,1.0867,1.0864,1.0862,1.089,1.089,1.0891,0,0,1.1121,1.1109,1.1092,1.1078,1.1058,1.1047,1.1043,1.102,1.1012,1.0988,1.0979,1.0962,1.0928,1.0912,1.0899,1.0879,1.0873,1.0873,1.0867,1.0852,1.085,1.0848,1.0839,1.0837,1.0871,1.0871,1.0871,0,1.112,1.1095,1.1084,1.1066,1.1053,1.1045,1.1027,1.1014,1.0987,1.0978,1.098,1.0937,1.0921,1.0891,1.0886,1.0877,1.087,1.0875,1.0852,1.0849,1.0847,1.0839,1.0836,1.0871,1.0871,1.0871,1.0871,0,1.1094,1.1076,1.1065,1.1041,1.1027,1.101,1.0994,1.0982,1.0975,1.0963,1.0937,1.0919,1.0894,1.0887,1.0879,1.0855,1.0856,1.0855,1.0857,1.0845,1.0837,1.0834,1.0871,1.0871,1.0871,1.0871,0,0,1.1082,1.1053,1.1048,1.1037,1.1014,1.0999,1.098,1.0958,1.0947,1.0929,1.0911,1.0882,1.0881,1.0867,1.0857,1.0844,1.0827,1.0844,1.0843,1.084,1.0798,1.0798,1.0794,1.0824,1.0823,1.0823,1.0799,0,1.1064,1.1032,1.1021,1.0993,1.0976,1.0967,1.0951,1.0934,1.0922,1.0904,1.089,1.087,1.0871,1.0862,1.0848,1.0833,1.0818,1.0834,1.0805,1.0804,1.081,1.079,1.079,1.0769,1.0796,1.0795,1.0795,0,1.1039,1.1022,1.0993,1.0971,1.0963,1.0948,1.0926,1.091,1.089,1.0882,1.0867,1.0858,1.0836,1.0841,1.0809,1.082,1.0808,1.0798,1.0797,1.0792,1.0798,1.0783,1.0762,1.0758,1.079,1.079,1.0791,0,1.1032,1.1001,1.098,1.097,1.0945,1.0934,1.0923,1.0903,1.089,1.0871,1.0861,1.0839,1.0827,1.0809,1.0794,1.0799,1.0763,1.0767,1.0754,1.0754,1.0745,1.0746,1.072,1.074,1.074,1.074,1.074,0,1.1012,1.0994,1.0976,1.0962,1.0941,1.0929,1.0908,1.0896,1.0878,1.0861,1.0852,1.0835,1.0818,1.0798,1.0786,1.0761,1.0755,1.0747,1.0744,1.0747,1.0748,1.0737,1.0738,1.0739,1.0739,1.0739,1.074,0,1.1,1.0988,1.0963,1.0941,1.0935,1.092,1.0901,1.0886,1.0874,1.0852,1.0846,1.0827,1.0803,1.0787,1.0757,1.0749,1.0721,1.0719,1.0728,1.0726,1.0713,1.0714,1.0679,1.0672,1.0698,1.0698,1.0698,0,1.0988,1.0974,1.0951,1.0939,1.0928,1.091,1.0897,1.0883,1.087,1.0845,1.0833,1.081,1.079,1.0753,1.0735,1.0711,1.0707,1.0696,1.0703,1.0706,1.0705,1.0705,1.0703,1.0694,1.0694,1.0694,1.0694,0,1.0967,1.0962,1.0944,1.0923,1.0908,1.0891,1.0874,1.0865,1.0848,1.0833,1.081,1.0794,1.0764,1.074,1.0714,1.07,1.0693,1.0692,1.0688,1.069,1.0695,1.069,1.0723,1.0693,1.0693,1.0693,1.0693,1.0693,1.0954,1.094,1.0922,1.0902,1.0888,1.0872,1.0857,1.0843,1.0824,1.0799,1.0792,1.0768,1.0746,1.0712,1.0698,1.0677,1.0677,1.0671,1.0669,1.0667,1.0667,1.07,1.0672,1.0672,1.0672,1.0672,1.0672,0,1.0931,1.0919,1.0901,1.0877,1.0861,1.0858,1.0839,1.0825,1.0804,1.0785,1.0766,1.0739,1.0715,1.0696,1.0671,1.0658,1.0654,1.0651,1.0651,1.0648,1.0668,1.0674,1.0655,1.0655,1.0655,1.0655,1.0655,1.0655,1.0917,1.0894,1.0886,1.0855,1.0843,1.0819,1.0808,1.0793,1.0778,1.0748,1.0729,1.0717,1.0697,1.0671,1.0648,1.0643,1.0633,1.0631,1.0625,1.0644,1.0646,1.0648,1.0653,1.063,1.063,1.0606,1.0606,1.0605]}]]